Regional Weather Roundup
Issued by NWS Little Rock, AR

Home | Current Version | Previous Version | Graphics & Text | Print | Product List | Glossary On
Versions: 1 2 3 4 5 6 7 8 9 10 11 12 13 14 15 16 17 18 19 20 21 22 23 24 25 26 27 28 29 30 31 32 33 34 35 36 37 38 39 40 41 42 43 44 45 46 47 48 49
000
ASUS44 KLZK 261805
RWRLZK

WEATHER ROUNDUP FOR ARKANSAS
NATIONAL WEATHER SERVICE LITTLE ROCK AR
100 PM CDT THU MAR 26 2015

NOTE: "FAIR" INDICATES FEW OR NO CLOUDS BELOW 12,000 FEET WITH NO
SIGNIFICANT WEATHER AND/OR OBSTRUCTIONS TO VISIBILITY.

ARZ001-003-010-029-261900-
NORTHWEST ARKANSAS

CITY           SKY/WX    TMP DP  RH WIND       PRES   REMARKS
FAYETTEVILLE   MOSUNNY   49  39  68 N15G22    30.13F
6HR MIN TEMP:  41; 6HR MAX TEMP:  49; 6HR PCP:  0.01;

FORT SMITH     PTSUNNY   54  40  59 N12G21    30.12F
6HR MIN TEMP:  49; 6HR MAX TEMP:  54; 6HR PCP: TRACE;

HARRISON       PTSUNNY   47  39  74 NW10      30.10S
6HR MIN TEMP:  40; 6HR MAX TEMP:  46; 6HR PCP:  0.06;

BENTONVILLE    MOSUNNY   48  36  61 N12G20    30.14F
6HR MIN TEMP:  41; 6HR MAX TEMP:  48; 6HR PCP:  0.03;

ROGERS         MOSUNNY   47  33  58 N15       30.14F
6HR MIN TEMP:  40; 6HR MAX TEMP:  47; 6HR PCP:  0.04;

SILOAM SPGS    MOSUNNY   50  34  53 N18       30.15F
6HR MIN TEMP:  41; 6HR MAX TEMP:  50; 6HR PCP:  0.01;

HIGHFILL       SUNNY     50  35  56 N15       30.13F
6HR MIN TEMP:  41; 6HR MAX TEMP:  50; 6HR PCP:  0.02;

SPRINGDALE     MOSUNNY   48  37  66 N15         N/A
$$

ARZ004-005-016-261900-
NORTH CENTRAL ARKANSAS

CITY           SKY/WX    TMP DP  RH WIND       PRES   REMARKS
BATESVILLE     CLOUDY    46  43  87 N7        30.06S
6HR MIN TEMP:  45; 6HR MAX TEMP:  54; 6HR PCP:  0.11;

FLIPPIN        PTSUNNY   46  36  66 N9G21     30.09F
6HR MIN TEMP:  43; 6HR MAX TEMP:  46;

MTN HOME       CLOUDY    46  38  73 NW7       30.08S
6HR MIN TEMP:  41; 6HR MAX TEMP:  46; 6HR PCP:  0.05;

$$

ARZ040-041-261900-
WEST CENTRAL ARKANSAS

CITY           SKY/WX    TMP DP  RH WIND       PRES   REMARKS
MENA           CLOUDY    55  45  67 N13G18    30.07S
MOUNT IDA      CLOUDY    53  45  74 N8        30.03R
6HR MIN TEMP:  50; 6HR MAX TEMP:  58; 6HR PCP:  0.09;

$$

ARZ009-017-025-026-028-261900-
NORTHEAST ARKANSAS

CITY           SKY/WX    TMP DP  RH WIND       PRES   REMARKS
CORNING          N/A     45  41  87 N12G18    30.05F
JONESBORO      CLOUDY    44  43  96 N10G22    30.04R
6HR MIN TEMP:  44; 6HR MAX TEMP:  55; 6HR PCP:  0.10;

NEWPORT        LGT RAIN  47  45  93 N15       30.06R
6HR MIN TEMP:  46; 6HR MAX TEMP:  58; 6HR PCP:  0.08;

BLYTHEVILLE    LGT RAIN  46  45  96 N24G33    30.03R FOG
6HR MIN TEMP:  46; 6HR MAX TEMP:  54; 6HR PCP:  0.01;

$$

ARZ022-023-033-042-044-261900-
CENTRAL ARKANSAS

CITY           SKY/WX    TMP DP  RH WIND       PRES   REMARKS
LITTLE ROCK    CLOUDY    50  47  89 N15       30.05R
6HR MIN TEMP:  50; 6HR MAX TEMP:  60; 6HR PCP:  0.04;

JACKSONVILLE   CLOUDY    50  46  85 N13G20    30.02F
6HR MIN TEMP:  49; 6HR MAX TEMP:  57; 6HR PCP:  0.08;

SEARCY         CLOUDY    49  46  90 N14       30.05S
6HR MIN TEMP:  48; 6HR MAX TEMP:  57; 6HR PCP:  0.02;

HOT SPRINGS    CLOUDY    52  45  77 N7        30.04S
6HR MIN TEMP:  50; 6HR MAX TEMP:  58; 6HR PCP:  0.03;

RUSSELLVILLE   CLOUDY    52  42  69 N12G22    30.07R
6HR MIN TEMP:  49; 6HR MAX TEMP:  55;

CLINTON        CLOUDY    48  41  76 NW6       30.09R
$$

ARZ036-261900-
EAST ARKANSAS

CITY           SKY/WX    TMP DP  RH WIND       PRES   REMARKS
WEST MEMPHIS   CLOUDY    49  46  90 N18G29    30.00R
6HR MIN TEMP:  48; 6HR MAX TEMP:  62; 6HR PCP:  0.06;

$$

ARZ050-053-066-070-073-261900-
SOUTHWEST ARKANSAS

CITY           SKY/WX    TMP DP  RH WIND       PRES   REMARKS
ARKADELPHIA    LGT RAIN  53  50  90 N14       30.05R
6HR MIN TEMP:  53; 6HR MAX TEMP:  59; 6HR PCP:  0.04;

CAMDEN         CLOUDY    52  48  87 MISG      30.01R
TEXARKANA      LGT RAIN  52  50  93 N10       30.04R FOG
6HR MIN TEMP:  52; 6HR MAX TEMP:  61; 6HR PCP:  0.01;

EL DORADO      LGT RAIN  57  54  89 N24G35    29.95R
6HR MIN TEMP:  57; 6HR MAX TEMP:  64; 6HR PCP:  0.01;

$$

ARZ056-057-069-261900-
SOUTHEAST ARKANSAS

CITY           SKY/WX    TMP DP  RH WIND       PRES   REMARKS
PINE BLUFF     LGT RAIN  50  48  93 N18G31    30.01R
6HR MIN TEMP:  50; 6HR MAX TEMP:  63; 6HR PCP:  0.05;

STUTTGART      CLOUDY    48  45  87 N28G35    30.01S
6HR MIN TEMP:  48; 6HR MAX TEMP:  64; 6HR PCP:  0.03;

MONTICELLO     CLOUDY    55  50  83 N9G23     29.95R
6HR MIN TEMP:  55; 6HR MAX TEMP:  68; 6HR PCP:  0.02;


$$




USA.gov is the U.S. government's official web portal to all federal, state and local government web resources and services.